TimeEDT,TemperatureF,Dew PointF,Humidity,Sea Level PressureIn,VisibilityMPH,Wind Direction,Wind SpeedMPH,Gust SpeedMPH,PrecipitationIn,Events,Conditions,WindDirDegrees,DateUTC
12:54 AM,46.9,41.0,80,30.24,10.0,ENE,9.2,-,N/A,,Mostly Cloudy,60,2013-05-05 04:54:00
1:38 AM,46.4,39.2,76,30.22,10.0,ENE,11.5,-,N/A,,Scattered Clouds,70,2013-05-05 05:38:00
1:54 AM,46.9,39.9,77,30.22,10.0,ENE,10.4,-,N/A,,Mostly Cloudy,60,2013-05-05 05:54:00
2:54 AM,46.9,39.9,77,30.21,10.0,ENE,6.9,-,N/A,,Mostly Cloudy,60,2013-05-05 06:54:00
3:54 AM,46.0,41.0,83,30.21,10.0,NE,6.9,-,N/A,,Overcast,50,2013-05-05 07:54:00
4:20 AM,46.4,39.2,76,30.20,10.0,NE,9.2,-,N/A,,Scattered Clouds,50,2013-05-05 08:20:00
4:54 AM,46.0,39.9,79,30.20,10.0,NE,10.4,-,N/A,,Partly Cloudy,40,2013-05-05 08:54:00
5:36 AM,46.4,39.2,76,30.20,10.0,NE,12.7,-,N/A,,Mostly Cloudy,50,2013-05-05 09:36:00
5:54 AM,46.9,39.9,77,30.21,10.0,NE,10.4,-,N/A,,Overcast,50,2013-05-05 09:54:00
6:54 AM,48.0,39.0,71,30.22,10.0,NE,16.1,23.0,N/A,,Overcast,50,2013-05-05 10:54:00
7:54 AM,48.0,39.0,71,30.23,10.0,ENE,18.4,25.3,N/A,,Overcast,60,2013-05-05 11:54:00
8:54 AM,50.0,39.0,66,30.25,10.0,NE,15.0,24.2,N/A,,Overcast,50,2013-05-05 12:54:00
9:54 AM,51.1,41.0,68,30.25,10.0,NE,17.3,24.2,N/A,,Overcast,50,2013-05-05 13:54:00
10:54 AM,53.1,41.0,64,30.25,10.0,NE,16.1,20.7,N/A,,Overcast,50,2013-05-05 14:54:00
11:54 AM,55.9,43.0,62,30.24,10.0,NE,12.7,-,N/A,,Overcast,50,2013-05-05 15:54:00
12:54 PM,55.9,43.0,62,30.23,10.0,ENE,13.8,-,N/A,,Overcast,60,2013-05-05 16:54:00
2:54 PM,55.9,44.1,64,30.23,10.0,ENE,16.1,23.0,N/A,,Overcast,60,2013-05-05 18:54:00
3:54 PM,57.0,44.1,62,30.22,10.0,ENE,15.0,-,N/A,,Mostly Cloudy,70,2013-05-05 19:54:00
4:54 PM,55.9,44.1,64,30.21,10.0,ENE,11.5,-,N/A,,Scattered Clouds,70,2013-05-05 20:54:00
5:52 PM,55.4,42.8,63,30.20,10.0,East,11.5,19.6,N/A,,Mostly Cloudy,80,2013-05-05 21:52:00
5:54 PM,55.0,43.0,64,30.20,10.0,East,10.4,19.6,N/A,,Mostly Cloudy,80,2013-05-05 21:54:00
6:54 PM,53.1,43.0,69,30.21,10.0,East,11.5,-,N/A,,Overcast,80,2013-05-05 22:54:00
7:54 PM,51.1,43.0,74,30.22,10.0,ENE,9.2,-,N/A,,Overcast,60,2013-05-05 23:54:00
8:13 PM,51.8,42.8,71,30.21,10.0,ENE,8.1,-,N/A,,Overcast,60,2013-05-06 00:13:00
8:54 PM,50.0,44.1,80,30.22,10.0,ENE,8.1,-,N/A,,Overcast,60,2013-05-06 00:54:00
9:54 PM,48.9,44.1,83,30.22,10.0,East,4.6,-,N/A,,Clear,80,2013-05-06 01:54:00
10:13 PM,48.2,44.6,87,30.21,10.0,ENE,3.5,-,N/A,,Mostly Cloudy,60,2013-05-06 02:13:00
10:54 PM,50.0,45.0,83,30.21,10.0,ENE,6.9,-,N/A,,Overcast,60,2013-05-06 02:54:00
11:23 PM,48.2,44.6,87,30.19,10.0,NE,4.6,-,N/A,,Scattered Clouds,40,2013-05-06 03:23:00
11:54 PM,48.0,44.1,86,30.19,10.0,NE,4.6,-,N/A,,Clear,40,2013-05-06 03:54:00